NOAA 16 DEB, 41046

Orbit data source: Space-Track

NOAA 16 DEB, 41046 is space debris in SSO originally from a launch on Thu, 21 Sep 2000 UTC launched from the Air Force Western Test Range (AFWTR). Debris objects in space refer to the collection of defunct objects orbiting the Earth. Examples of debris include non-operational satellites, rocket bodies, and fragments generated from explosions, collisions, or faulty payload assembly.

Loading next visibility...
Identifier
41046, 2000-055D
Orbit
SSO
Country
Flag of USUS
Related business
Manufacturer
Unknown
Mission
Spacecraft
Bus & Motor
Unknown
Mass
Unknown
Launch date (UTC)
2000-09-21 (25 years ago)
Launch vehicle
Unknown
Launch site
Air Force Western Test Range (AFWTR)
Object type
Payload
Rocket body
Debris
Shape & HBR
Unknown
Radar Cross Section
Small (<0.1 m²)

Expand to show TLE details & history
Last TLE update: 1 day ago

TLE from 1 day ago
0 NOAA 16 DEB
1 41046U 00055D   25259.75498433  .00000596  00000-0  30914-3 0  9991
2 41046  98.6486 326.6788 0012920  33.4619 326.7371 14.18459128506719
Epoch: 2025-09-16T18:07Z
TLE epoch observation values (Epoch: 2025-09-16T18:07:10.646Z)
Latitude
0.00003°
Longitude
58.9437°
Altitude
825.697 km
Speed
7.444 km/s
True Right ascension
21h 46m 42s
True Declination
0° 00' 00"
Sunlit
Object was in full shadow at epoch
Visualization orbit readout
Latitude
Unknown
Longitude
Unknown
Altitude
Unknown
Speed
Unknown
Apparent Right ascension
Unknown
Apparent Declination
Unknown
Sunlit
N/A
Visualization observer readout
Local Sidereal Time
17:02:00
Azimuth
Unknown
Elevation
Unknown
Doppler factor
Unknown
Orbital elements
Apogee altitude
837.036 km
Perigee altitude
818.416 km
Semi-major axis
7,205.863 km
Eccentricity
0.00129
Inclination
98.6486°
RAAN
326.6788°
Arg. of periapsis
33.4619°
True anomaly
326.65579°
Mean anomaly
326.7371°
Eccentric anomaly
326.69645°
Mean motion
3.54825 °/min
Orbital period
101.46 mins
BSTAR
0.00030914
Loading maneuver chart data...
Computing Atmospheric mass density...
Loading historical data...
Loading historical data...
Loading historical data...
Loading historical data...
Loading historical data...
Loading historical data...
Loading historical data...

Documentation

Showing up to 5 results
|